Location: Budapest
(47.4979°N, 19.0402°E)
Time: 22:12:20
(UTC+01:00)

ISS - Pass Details

Date: 08 October 2020
Orbit: 417 x 420 km, 51.6° (Epoch: 26 October)

Event Time Altitude Azimuth Distance (km) Brightness Sun altitude
Rises 18:47:21 0° 288° (WNW) 2,368 1.7 -7.3°
Reaches altitude 10° 18:49:46 10° 272° (W) 1,501 0.8 -7.7°
Maximum altitude 18:52:22 21° 221° (SW) 999 -1.3 -8.2°
Drops below altitude 10° 18:54:59 10° 170° (S) 1,494 -1.1 -8.6°
Sets 18:57:23 0° 154° (SSE) 2,354 -0.2 -9.0°
